BAW82P EGLL-KSAN

Flight info

Callsign BAW82P
Flight time N/A
Altitude 32000
Route UMLAT T418 WELIN T420 TNT UN57 POL UN601 RIBEL DCT ATSIX/M086F320 DCT 65N020W 6730N03000W/M085F340 6830N04000W 69N050W 69N060W DCT BOPUT/N0498F340 DCT 68N070W 66N080W 62N090W/N0493F360 5530N10000W DCT DURUR DCT KATEN DCT BIL DCT KU84Q DCT PICHO DCT WINEN/N0492F370 Q73 EEVUN/N0489F380 Q73 MOMAR LUCKI1
Aircraft B77W/H-SDE1E2E3FGHIJ2J3J4J5M1RWXY/LB1D1

Departure

Time 2026-04-30 14:04
Airport London Heathrow Airport (EGLL)

Arrival

Time N/A
Airport San Diego International Airport (KSAN)
Time Latitude Longitude Altitude Speed Heading
2026-04-30 13:39 51.47050 -0.47733 94 ft 0 kts 90°
2026-04-30 13:45 51.47050 -0.47734 91 ft 0 kts 90°
2026-04-30 13:54 51.47050 -0.47752 95 ft 3 kts 90°
2026-04-30 13:55 51.47050 -0.47784 91 ft 3 kts 90°
2026-04-30 13:55 51.47050 -0.47811 92 ft 3 kts 93°
2026-04-30 13:55 51.47053 -0.47842 92 ft 3 kts 117°
2026-04-30 13:55 51.47064 -0.47865 92 ft 3 kts 158°
2026-04-30 13:56 51.47082 -0.47870 91 ft 3 kts 180°
2026-04-30 13:56 51.47102 -0.47870 91 ft 3 kts 180°
2026-04-30 13:56 51.47109 -0.47870 91 ft 6 kts 180°
2026-04-30 13:59 51.47110 -0.47870 91 ft 0 kts 180°
2026-04-30 14:00 51.47083 -0.47870 93 ft 7 kts 179°
2026-04-30 14:00 51.46997 -0.47869 91 ft 8 kts 180°
2026-04-30 14:00 51.46915 -0.47869 91 ft 14 kts 180°
2026-04-30 14:01 51.46829 -0.47868 91 ft 12 kts 179°
2026-04-30 14:01 51.46748 -0.47867 91 ft 12 kts 180°
2026-04-30 14:01 51.46669 -0.47888 96 ft 12 kts 214°
2026-04-30 14:01 51.46653 -0.47978 94 ft 9 kts 270°
2026-04-30 14:02 51.46653 -0.48074 91 ft 9 kts 270°
2026-04-30 14:02 51.46646 -0.48170 93 ft 9 kts 241°
2026-04-30 14:02 51.46591 -0.48210 93 ft 9 kts 188°
2026-04-30 14:02 51.46529 -0.48212 93 ft 9 kts 178°
2026-04-30 14:03 51.46482 -0.48169 96 ft 8 kts 108°
2026-04-30 14:03 51.46480 -0.48079 93 ft 8 kts 90°
2026-04-30 14:03 51.46480 -0.47901 91 ft 26 kts 90°
2026-04-30 14:03 51.46482 -0.47303 94 ft 87 kts 90°
2026-04-30 14:04 51.46487 -0.45975 91 ft 149 kts 90°
2026-04-30 14:04 51.46485 -0.44089 168 ft 185 kts 89°
2026-04-30 14:04 51.46487 -0.42026 770 ft 188 kts 90°
2026-04-30 14:04 51.46481 -0.39980 1611 ft 179 kts 91°
2026-04-30 14:05 51.46782 -0.38008 1978 ft 195 kts 59°
2026-04-30 14:05 51.47907 -0.36717 2303 ft 212 kts 17°
2026-04-30 14:05 51.49431 -0.36867 2536 ft 231 kts 341°
2026-04-30 14:05 51.50794 -0.38376 2714 ft 249 kts 313°
2026-04-30 14:06 51.51974 -0.40571 2884 ft 270 kts 311°
2026-04-30 14:06 51.54461 -0.45284 4020 ft 283 kts 310°
2026-04-30 14:07 51.57079 -0.50255 5137 ft 296 kts 309°
2026-04-30 14:07 51.58412 -0.52782 5800 ft 295 kts 309°
2026-04-30 14:07 51.59739 -0.55293 6523 ft 294 kts 308°
2026-04-30 14:08 51.62408 -0.60333 7646 ft 301 kts 309°
2026-04-30 14:08 51.63779 -0.62922 8207 ft 305 kts 309°
2026-04-30 14:08 51.66629 -0.68086 9268 ft 311 kts 322°
2026-04-30 14:09 51.68583 -0.69562 9641 ft 313 kts 353°
2026-04-30 14:09 51.70733 -0.69884 10170 ft 311 kts 359°
2026-04-30 14:09 51.75227 -0.70338 10686 ft 341 kts 359°
2026-04-30 14:10 51.77663 -0.70585 10849 ft 361 kts 359°
2026-04-30 14:10 51.80236 -0.70856 10998 ft 381 kts 359°
2026-04-30 14:10 51.82901 -0.71144 11337 ft 393 kts 358°
2026-04-30 14:10 51.85703 -0.71457 11881 ft 402 kts 358°
2026-04-30 14:11 51.88503 -0.71774 12603 ft 406 kts 358°
2026-04-30 14:11 51.91327 -0.72095 13433 ft 408 kts 358°
2026-04-30 14:11 51.94137 -0.72412 14163 ft 412 kts 358°
2026-04-30 14:11 51.97017 -0.72735 14767 ft 419 kts 358°
2026-04-30 14:12 51.99939 -0.73087 15465 ft 422 kts 355°
2026-04-30 14:12 52.02831 -0.73803 16141 ft 426 kts 349°
2026-04-30 14:12 52.05718 -0.75078 16739 ft 433 kts 342°
2026-04-30 14:12 52.08587 -0.76622 17439 ft 436 kts 342°
2026-04-30 14:13 52.11474 -0.78197 18131 ft 439 kts 342°
2026-04-30 14:13 52.14403 -0.79776 18707 ft 444 kts 342°
2026-04-30 14:13 52.17355 -0.81340 19287 ft 448 kts 342°
2026-04-30 14:13 52.20326 -0.82900 19912 ft 450 kts 342°
2026-04-30 14:14 52.23310 -0.84545 20477 ft 454 kts 339°
2026-04-30 14:14 52.26214 -0.86632 20988 ft 459 kts 333°
2026-04-30 14:14 52.28996 -0.89253 21512 ft 463 kts 328°
2026-04-30 14:14 52.31740 -0.92033 22080 ft 466 kts 328°
2026-04-30 14:15 52.34470 -0.94821 22611 ft 470 kts 328°
2026-04-30 14:15 52.37260 -0.97649 23120 ft 474 kts 328°
2026-04-30 14:15 52.39987 -1.00390 23572 ft 480 kts 329°
2026-04-30 14:15 52.42867 -1.03268 23871 ft 487 kts 329°
2026-04-30 14:16 52.45763 -1.06158 24275 ft 489 kts 329°
2026-04-30 14:16 52.48675 -1.09071 24767 ft 491 kts 329°
2026-04-30 14:16 52.51587 -1.12007 25203 ft 493 kts 328°
2026-04-30 14:16 52.54525 -1.14992 25617 ft 496 kts 328°
2026-04-30 14:17 52.57465 -1.17983 26019 ft 498 kts 328°
2026-04-30 14:17 52.60394 -1.20951 26376 ft 502 kts 328°
2026-04-30 14:17 52.63374 -1.23968 26738 ft 505 kts 328°
2026-04-30 14:17 52.66372 -1.27007 27120 ft 508 kts 328°
2026-04-30 14:18 52.69388 -1.30072 27506 ft 511 kts 328°
2026-04-30 14:18 52.72424 -1.33162 27852 ft 513 kts 328°
2026-04-30 14:18 52.78534 -1.39385 28770 ft 517 kts 328°
2026-04-30 14:19 52.84678 -1.45660 29425 ft 521 kts 328°
2026-04-30 14:19 52.87775 -1.48834 29681 ft 524 kts 328°
2026-04-30 14:19 52.90881 -1.52022 29982 ft 527 kts 327°
2026-04-30 14:20 52.94017 -1.55247 30110 ft 532 kts 327°
2026-04-30 14:20 52.97174 -1.58499 30338 ft 534 kts 327°
2026-04-30 14:20 53.03441 -1.64930 31133 ft 528 kts 329°
2026-04-30 14:21 53.06675 -1.67793 31509 ft 527 kts 334°
2026-04-30 14:21 53.10021 -1.70099 31823 ft 526 kts 340°
2026-04-30 14:21 53.16937 -1.74273 32418 ft 525 kts 340°
2026-04-30 14:22 53.20336 -1.76310 32744 ft 524 kts 340°
2026-04-30 14:22 53.27176 -1.80492 33188 ft 525 kts 340°
2026-04-30 14:22 53.30603 -1.82623 33225 ft 526 kts 340°
2026-04-30 14:23 53.44226 -1.91178 33219 ft 520 kts 340°
2026-04-30 14:24 53.54386 -1.97583 33223 ft 520 kts 340°
2026-04-30 14:25 53.67802 -2.06093 33225 ft 521 kts 339°
2026-04-30 14:26 53.77999 -2.12697 33217 ft 525 kts 338°
2026-04-30 14:27 53.88154 -2.19785 33230 ft 527 kts 338°
2026-04-30 14:27 53.94976 -2.24445 33220 ft 528 kts 338°
2026-04-30 14:28 54.04967 -2.32305 33211 ft 528 kts 327°
2026-04-30 14:28 54.11148 -2.38922 33210 ft 528 kts 326°
2026-04-30 14:29 54.22534 -2.51286 33213 ft 528 kts 326°
2026-04-30 14:31 54.39057 -2.69059 33221 ft 525 kts 326°
2026-04-30 14:31 54.48304 -2.79080 33204 ft 525 kts 326°
2026-04-30 14:32 54.57543 -2.89155 33205 ft 523 kts 326°
2026-04-30 14:33 54.63682 -2.95876 33213 ft 522 kts 326°
2026-04-30 14:33 54.72777 -3.05878 33210 ft 522 kts 325°
2026-04-30 14:34 54.78900 -3.12643 33206 ft 522 kts 325°
2026-04-30 14:34 54.85008 -3.19417 33219 ft 521 kts 325°
2026-04-30 14:35 54.94171 -3.29623 33225 ft 521 kts 324°
2026-04-30 14:36 55.00262 -3.36440 33220 ft 521 kts 324°
2026-04-30 14:36 55.06328 -3.43253 33222 ft 521 kts 324°
2026-04-30 14:37 55.12418 -3.50119 33226 ft 521 kts 324°
2026-04-30 14:37 55.18503 -3.57003 33215 ft 521 kts 324°
2026-04-30 14:38 55.24580 -3.63904 33223 ft 520 kts 324°
2026-04-30 14:38 55.30653 -3.70826 33224 ft 521 kts 324°
2026-04-30 14:39 55.36729 -3.77778 33222 ft 521 kts 324°
2026-04-30 14:39 55.42797 -3.84746 33202 ft 521 kts 324°
2026-04-30 14:40 55.51853 -3.95196 33228 ft 520 kts 324°
2026-04-30 14:40 55.57804 -4.02092 33218 ft 520 kts 324°
2026-04-30 14:41 55.63858 -4.09135 33218 ft 519 kts 324°
2026-04-30 14:41 55.69896 -4.16185 33230 ft 519 kts 324°
2026-04-30 14:42 55.75887 -4.23208 33232 ft 519 kts 324°
2026-04-30 14:42 55.81927 -4.30315 33243 ft 520 kts 324°
2026-04-30 14:43 55.87964 -4.37444 33237 ft 521 kts 323°
2026-04-30 14:43 55.93990 -4.44589 33249 ft 521 kts 323°
2026-04-30 14:44 56.00030 -4.51775 33234 ft 522 kts 323°
2026-04-30 14:44 56.06073 -4.58996 33235 ft 522 kts 324°
2026-04-30 14:45 56.12110 -4.66234 33233 ft 522 kts 324°
2026-04-30 14:45 56.18104 -4.73449 33217 ft 522 kts 323°
2026-04-30 14:46 56.24140 -4.80741 33207 ft 522 kts 323°
2026-04-30 14:46 56.29174 -4.86845 33205 ft 521 kts 323°
2026-04-30 14:47 56.35142 -4.94108 33203 ft 520 kts 323°
2026-04-30 14:47 56.41022 -5.01293 33241 ft 518 kts 323°
2026-04-30 14:48 56.46995 -5.08617 33213 ft 519 kts 323°
2026-04-30 14:48 56.52956 -5.15956 33235 ft 519 kts 323°
2026-04-30 14:49 56.58919 -5.23326 33255 ft 518 kts 322°
2026-04-30 14:49 56.64884 -5.30727 33230 ft 519 kts 322°
2026-04-30 14:50 56.73785 -5.41824 33236 ft 519 kts 322°
2026-04-30 14:51 56.82720 -5.53026 33188 ft 519 kts 322°
2026-04-30 14:52 56.91625 -5.64259 33187 ft 517 kts 322°
2026-04-30 14:52 57.00481 -5.75497 33209 ft 516 kts 321°
2026-04-30 14:53 57.09332 -5.86796 33195 ft 516 kts 321°
2026-04-30 14:54 57.20970 -6.01751 33209 ft 515 kts 321°
2026-04-30 14:55 57.29743 -6.13102 33193 ft 510 kts 321°
2026-04-30 14:56 57.41292 -6.28150 33192 ft 506 kts 321°
2026-04-30 14:57 57.49873 -6.39412 33216 ft 506 kts 321°
2026-04-30 14:58 57.61342 -6.54562 33203 ft 505 kts 321°
2026-04-30 14:58 57.69919 -6.65971 33203 ft 504 kts 320°
2026-04-30 15:00 57.84158 -6.85062 33210 ft 502 kts 320°
2026-04-30 15:01 57.95376 -7.00236 33200 ft 501 kts 320°
2026-04-30 15:01 58.03836 -7.11761 33206 ft 501 kts 320°
2026-04-30 15:02 58.09471 -7.19474 33201 ft 500 kts 320°
2026-04-30 15:03 58.23511 -7.38825 33205 ft 498 kts 320°
2026-04-30 15:04 58.37552 -7.58380 33209 ft 502 kts 319°
2026-04-30 15:06 58.51617 -7.78161 33203 ft 504 kts 319°
2026-04-30 15:07 58.62911 -7.94191 33201 ft 504 kts 318°
2026-04-30 15:08 58.74023 -8.10092 33197 ft 503 kts 318°
2026-04-30 15:09 58.88005 -8.30287 33204 ft 502 kts 317°
2026-04-30 15:10 58.99145 -8.46531 33196 ft 503 kts 317°
2026-04-30 15:11 59.15900 -8.71211 33187 ft 503 kts 316°
2026-04-30 15:13 59.29791 -8.91911 33208 ft 501 kts 316°
2026-04-30 15:14 59.49084 -9.21039 33174 ft 509 kts 315°
2026-04-30 15:17 59.74208 -9.59595 33153 ft 504 kts 314°
2026-04-30 15:19 59.96180 -9.93960 33153 ft 501 kts 314°
2026-04-30 17:39 68.92984 -47.44216 35177 ft 454 kts 276°
2026-04-30 17:42 68.95802 -48.31139 35164 ft 454 kts 275°
2026-04-30 17:43 68.97048 -48.74826 35143 ft 452 kts 274°
2026-04-30 17:44 68.98385 -49.26802 35092 ft 452 kts 274°
2026-04-30 17:47 69.00118 -50.05171 35042 ft 451 kts 274°
2026-04-30 17:48 69.01804 -50.66228 35027 ft 450 kts 274°
2026-04-30 17:50 69.03424 -51.35670 35033 ft 451 kts 273°
2026-04-30 17:52 69.04459 -51.88140 35032 ft 450 kts 272°
2026-04-30 17:54 69.05663 -52.63472 35043 ft 450 kts 271°
2026-04-30 17:56 69.06482 -53.33169 35028 ft 451 kts 271°
2026-04-30 17:58 69.06913 -53.85723 35044 ft 451 kts 270°
2026-04-30 18:00 69.07235 -54.55442 35045 ft 451 kts 269°
2026-04-30 18:01 69.07293 -54.99433 35055 ft 452 kts 269°
2026-04-30 18:02 69.07215 -55.51775 35055 ft 452 kts 268°
2026-04-30 18:04 69.06977 -56.04145 35066 ft 452 kts 268°
2026-04-30 18:06 69.06406 -56.74425 35075 ft 453 kts 267°
2026-04-30 18:08 69.05678 -57.35442 35085 ft 451 kts 266°
2026-04-30 18:10 69.04645 -58.01402 35083 ft 451 kts 266°
2026-04-30 18:11 69.03486 -58.61377 35088 ft 452 kts 265°
2026-04-30 18:13 69.02518 -59.04645 35094 ft 453 kts 265°
2026-04-30 18:14 69.01425 -59.48504 35098 ft 453 kts 264°
2026-04-30 18:15 68.99983 -60.00626 35102 ft 454 kts 264°
2026-04-30 18:16 68.99378 -60.35651 35083 ft 454 kts 266°
2026-04-30 18:17 68.99102 -60.52498 35091 ft 453 kts 265°
2026-04-30 18:18 68.98599 -60.78876 35099 ft 453 kts 265°
2026-04-30 18:18 68.98237 -60.96380 35126 ft 453 kts 265°
2026-04-30 18:19 68.97869 -61.13429 35108 ft 454 kts 265°
2026-04-30 18:19 68.97475 -61.30869 35099 ft 454 kts 265°
2026-04-30 18:20 68.97058 -61.48556 35096 ft 455 kts 265°
2026-04-30 18:20 68.96626 -61.66104 35095 ft 455 kts 264°
2026-04-30 18:21 68.96178 -61.83690 35097 ft 455 kts 264°
2026-04-30 18:21 68.95363 -62.00694 35092 ft 454 kts 256°
2026-04-30 18:22 68.93782 -62.17554 35111 ft 454 kts 255°
2026-04-30 18:22 68.91367 -62.43007 35090 ft 454 kts 255°
2026-04-30 18:23 68.89756 -62.59966 35094 ft 454 kts 255°
2026-04-30 18:23 68.88133 -62.76924 35093 ft 454 kts 254°
2026-04-30 18:24 68.85697 -63.02018 35085 ft 454 kts 254°
2026-04-30 18:25 68.84041 -63.18821 35084 ft 454 kts 254°
2026-04-30 18:25 68.81516 -63.44067 35087 ft 454 kts 253°
2026-04-30 18:26 68.78963 -63.69173 35092 ft 454 kts 253°
2026-04-30 18:27 68.76366 -63.94282 35090 ft 453 kts 253°
2026-04-30 18:28 68.73756 -64.19111 35091 ft 453 kts 253°
2026-04-30 18:28 68.71096 -64.44001 35084 ft 453 kts 253°
2026-04-30 18:29 68.67478 -64.77239 35096 ft 454 kts 252°
2026-04-30 18:30 68.63818 -65.10152 35086 ft 454 kts 252°
2026-04-30 18:31 68.61027 -65.34810 35089 ft 454 kts 252°
2026-04-30 18:32 68.58175 -65.59618 35082 ft 454 kts 252°
2026-04-30 18:33 68.55294 -65.84296 35085 ft 454 kts 251°
2026-04-30 18:33 68.52435 -66.08432 35084 ft 455 kts 251°
2026-04-30 18:34 68.49479 -66.33013 35073 ft 454 kts 251°
2026-04-30 18:35 68.47490 -66.49354 35067 ft 455 kts 251°
2026-04-30 18:35 68.45484 -66.65672 35067 ft 455 kts 251°
2026-04-30 18:36 68.42455 -66.90026 35066 ft 455 kts 251°
2026-04-30 18:37 68.39421 -67.14078 35068 ft 456 kts 250°
2026-04-30 18:37 68.37344 -67.30345 35076 ft 456 kts 250°
2026-04-30 18:38 68.35251 -67.46587 35072 ft 456 kts 250°
2026-04-30 18:38 68.33139 -67.62820 35057 ft 456 kts 250°
2026-04-30 18:39 68.31030 -67.78890 35072 ft 456 kts 250°
2026-04-30 18:39 68.28890 -67.95038 35053 ft 456 kts 250°
2026-04-30 18:40 68.27156 -68.08016 35057 ft 456 kts 249°
2026-04-30 18:40 68.24986 -68.24127 35073 ft 456 kts 249°
2026-04-30 18:41 68.22445 -68.42810 35082 ft 456 kts 249°
2026-04-30 18:41 68.20617 -68.56124 35082 ft 457 kts 249°
2026-04-30 18:42 68.18400 -68.72149 35078 ft 457 kts 249°
2026-04-30 18:42 68.15042 -68.96148 35069 ft 457 kts 249°
2026-04-30 18:45 68.02487 -69.83220 35080 ft 457 kts 248°
2026-04-30 18:46 68.00149 -69.99003 35097 ft 457 kts 248°
2026-04-30 18:46 67.97785 -70.14430 35087 ft 457 kts 247°
2026-04-30 18:47 67.95339 -70.29942 35097 ft 456 kts 247°
2026-04-30 18:47 67.92866 -70.45523 35097 ft 456 kts 246°
2026-04-30 18:48 67.90387 -70.61076 35098 ft 456 kts 246°
2026-04-30 18:48 67.87898 -70.76599 35094 ft 456 kts 246°
2026-04-30 18:49 67.85411 -70.91988 35110 ft 457 kts 246°
2026-04-30 18:49 67.82936 -71.07178 35098 ft 458 kts 246°
2026-04-30 18:50 67.80392 -71.22674 35094 ft 458 kts 246°
2026-04-30 18:50 67.77853 -71.38013 35097 ft 458 kts 246°
2026-04-30 18:51 67.75286 -71.53400 35107 ft 458 kts 246°
2026-04-30 18:51 67.72696 -71.68802 35107 ft 458 kts 246°
2026-04-30 18:52 67.70098 -71.84134 35121 ft 458 kts 245°
2026-04-30 18:52 67.67484 -71.99443 35117 ft 458 kts 245°
2026-04-30 18:53 67.64912 -72.14394 35119 ft 459 kts 245°
2026-04-30 18:53 67.62262 -72.29678 35107 ft 459 kts 245°
2026-04-30 18:54 67.59616 -72.44820 35108 ft 459 kts 245°
2026-04-30 18:54 67.56936 -72.60046 35102 ft 459 kts 245°
2026-04-30 18:55 67.54249 -72.75199 35121 ft 459 kts 245°
2026-04-30 18:55 67.50188 -72.97881 35120 ft 459 kts 244°
2026-04-30 18:56 67.46168 -73.20087 35138 ft 459 kts 244°
2026-04-30 18:57 67.42041 -73.42631 35119 ft 460 kts 244°
2026-04-30 18:57 67.39264 -73.57661 35123 ft 460 kts 244°
2026-04-30 18:58 67.35075 -73.80128 35110 ft 460 kts 244°
2026-04-30 18:59 67.30923 -74.02158 35120 ft 461 kts 244°
2026-04-30 19:00 67.25268 -74.31792 35135 ft 461 kts 243°
2026-04-30 19:01 67.19529 -74.61433 35110 ft 462 kts 243°
2026-04-30 19:02 67.15180 -74.83614 35123 ft 462 kts 243°
2026-04-30 19:03 67.09388 -75.12799 35110 ft 462 kts 243°
2026-04-30 19:04 67.03494 -75.42081 35117 ft 462 kts 243°
2026-04-30 19:05 66.97535 -75.71279 35114 ft 463 kts 242°
2026-04-30 19:06 66.91555 -76.00177 35102 ft 464 kts 242°
2026-04-30 19:06 66.87040 -76.21737 35117 ft 464 kts 242°
2026-04-30 19:07 66.82458 -76.43399 35118 ft 464 kts 242°
2026-04-30 19:08 66.76298 -76.72175 35119 ft 464 kts 242°
2026-04-30 19:09 66.71658 -76.93594 35118 ft 465 kts 241°
2026-04-30 19:09 66.68593 -77.07627 35096 ft 466 kts 241°
2026-04-30 19:10 66.62316 -77.36080 35122 ft 466 kts 241°
2026-04-30 19:11 66.57565 -77.57371 35136 ft 465 kts 241°
2026-04-30 19:12 66.54408 -77.71401 35116 ft 466 kts 240°
2026-04-30 19:12 66.51218 -77.85489 35113 ft 467 kts 240°
2026-04-30 19:13 66.44878 -78.13212 35119 ft 467 kts 240°
2026-04-30 19:14 66.41659 -78.27154 35122 ft 467 kts 240°
2026-04-30 19:14 66.38414 -78.41121 35124 ft 467 kts 240°
2026-04-30 19:15 66.35135 -78.55141 35119 ft 467 kts 240°
2026-04-30 19:15 66.30230 -78.75945 35126 ft 468 kts 240°
2026-04-30 19:16 66.26932 -78.89823 35123 ft 469 kts 240°
2026-04-30 19:17 66.22014 -79.10358 35125 ft 469 kts 239°
2026-04-30 19:17 66.16976 -79.31193 35122 ft 469 kts 239°
2026-04-30 19:18 66.11929 -79.51871 35131 ft 469 kts 239°
2026-04-30 19:19 66.08554 -79.65590 35141 ft 470 kts 239°
2026-04-30 19:19 66.03432 -79.86262 35125 ft 472 kts 239°
2026-04-30 19:20 65.99979 -79.99956 35132 ft 472 kts 237°
2026-04-30 19:21 65.94076 -80.18812 35144 ft 472 kts 233°
2026-04-30 19:22 65.85929 -80.44093 35139 ft 472 kts 233°
2026-04-30 19:23 65.73763 -80.81576 35143 ft 472 kts 232°
2026-04-30 19:24 65.67661 -81.00136 35141 ft 472 kts 232°
2026-04-30 19:25 65.57474 -81.30778 35136 ft 471 kts 232°
2026-04-30 19:26 65.49232 -81.55260 35140 ft 471 kts 232°
2026-04-30 19:27 65.43008 -81.73569 35144 ft 472 kts 232°
2026-04-30 19:28 65.36748 -81.91831 35129 ft 473 kts 232°
2026-04-30 19:29 65.28446 -82.15822 35146 ft 474 kts 231°
2026-04-30 19:30 65.20692 -82.37993 35155 ft 474 kts 231°
2026-04-30 19:31 65.12218 -82.61970 35155 ft 474 kts 231°
2026-04-30 19:31 65.05808 -82.79936 35165 ft 474 kts 231°
2026-04-30 19:32 65.01534 -82.91833 35164 ft 474 kts 231°
2026-04-30 19:32 64.97395 -83.03293 35148 ft 475 kts 231°
2026-04-30 19:33 64.93090 -83.15152 35139 ft 475 kts 231°
2026-04-30 19:33 64.88799 -83.26906 35138 ft 475 kts 231°
2026-04-30 19:34 64.84474 -83.38693 35153 ft 475 kts 231°
2026-04-30 19:35 64.77977 -83.56274 35132 ft 475 kts 231°
2026-04-30 19:35 64.73645 -83.67923 35138 ft 476 kts 231°
2026-04-30 19:36 64.69279 -83.79601 35137 ft 476 kts 230°
2026-04-30 19:36 64.62719 -83.97029 35136 ft 477 kts 230°
2026-04-30 19:37 64.58420 -84.08376 35129 ft 477 kts 230°
2026-04-30 19:37 64.54014 -84.19943 35128 ft 477 kts 230°
2026-04-30 19:38 64.49621 -84.31416 35131 ft 477 kts 230°
2026-04-30 19:38 64.45195 -84.42915 35131 ft 477 kts 230°
2026-04-30 19:39 64.40784 -84.54316 35132 ft 478 kts 230°
2026-04-30 19:39 64.36331 -84.65762 35142 ft 478 kts 230°
2026-04-30 19:40 64.31892 -84.77115 35143 ft 478 kts 230°
2026-04-30 19:40 64.27416 -84.88504 35141 ft 479 kts 230°
2026-04-30 19:41 64.22957 -84.99789 35142 ft 478 kts 230°
2026-04-30 19:41 64.18576 -85.10821 35154 ft 477 kts 230°
2026-04-30 19:42 64.14078 -85.22091 35154 ft 478 kts 229°
2026-04-30 19:42 64.09577 -85.33309 35164 ft 478 kts 229°
2026-04-30 19:43 64.05088 -85.44440 35165 ft 479 kts 229°
2026-04-30 19:44 63.98281 -85.61211 35139 ft 479 kts 229°
2026-04-30 19:44 63.93763 -85.72270 35170 ft 479 kts 229°
2026-04-30 19:45 63.89204 -85.83375 35166 ft 479 kts 229°
2026-04-30 19:45 63.84671 -85.94357 35169 ft 479 kts 229°
2026-04-30 19:46 63.80227 -86.05073 35181 ft 479 kts 229°
2026-04-30 19:46 63.75655 -86.16042 35175 ft 479 kts 229°
2026-04-30 19:47 63.71089 -86.26939 35183 ft 479 kts 229°
2026-04-30 19:47 63.66493 -86.37856 35173 ft 479 kts 229°
2026-04-30 19:48 63.61901 -86.48708 35180 ft 480 kts 229°
2026-04-30 19:48 63.57308 -86.59507 35183 ft 480 kts 229°
2026-04-30 19:49 63.52666 -86.70368 35192 ft 480 kts 229°
2026-04-30 19:49 63.45734 -86.86485 35190 ft 480 kts 228°
2026-04-30 19:50 63.41070 -86.97260 35193 ft 481 kts 228°
2026-04-30 19:50 63.36596 -87.07547 35195 ft 480 kts 228°
2026-04-30 19:51 63.31926 -87.18232 35195 ft 481 kts 228°
2026-04-30 19:51 63.27235 -87.28914 35202 ft 481 kts 228°
2026-04-30 19:52 63.22560 -87.39506 35202 ft 482 kts 228°
2026-04-30 19:52 63.17845 -87.50135 35201 ft 482 kts 228°
2026-04-30 19:53 63.13157 -87.60651 35207 ft 482 kts 228°
2026-04-30 19:53 63.08424 -87.71218 35192 ft 482 kts 227°
2026-04-30 19:54 63.03725 -87.81657 35199 ft 482 kts 228°
2026-04-30 19:54 62.98999 -87.92106 35201 ft 482 kts 227°
2026-04-30 19:55 62.94345 -88.02344 35221 ft 483 kts 227°
2026-04-30 19:55 62.89583 -88.12772 35217 ft 483 kts 227°
2026-04-30 19:56 62.84812 -88.23168 35213 ft 484 kts 227°
2026-04-30 19:56 62.80059 -88.33473 35206 ft 483 kts 227°
2026-04-30 19:57 62.75267 -88.43813 35212 ft 483 kts 227°
2026-04-30 19:57 62.70471 -88.54114 35206 ft 483 kts 227°
2026-04-30 19:58 62.65674 -88.64366 35216 ft 483 kts 227°
2026-04-30 19:58 62.60890 -88.74542 35212 ft 484 kts 227°
2026-04-30 19:59 62.56063 -88.84762 35219 ft 485 kts 227°
2026-04-30 20:00 62.48796 -89.00053 35207 ft 484 kts 227°
2026-04-30 20:00 62.44081 -89.09916 35216 ft 484 kts 227°
2026-04-30 20:01 62.36832 -89.24991 35220 ft 483 kts 226°
2026-04-30 20:01 62.31987 -89.35010 35221 ft 483 kts 226°
2026-04-30 20:02 62.24693 -89.50003 35223 ft 483 kts 226°
2026-04-30 20:03 62.17413 -89.64861 35217 ft 482 kts 226°
2026-04-30 20:03 62.12543 -89.74744 35222 ft 481 kts 226°
2026-04-30 20:04 62.07673 -89.84583 35226 ft 481 kts 226°
2026-04-30 20:05 62.00386 -89.99226 35217 ft 481 kts 226°
2026-04-30 20:05 61.93161 -90.13531 35230 ft 483 kts 226°
2026-04-30 20:06 61.88214 -90.23237 35226 ft 483 kts 225°
2026-04-30 20:06 61.83268 -90.32909 35231 ft 484 kts 225°
2026-04-30 20:07 61.78313 -90.42562 35230 ft 484 kts 225°
2026-04-30 20:08 61.70884 -90.56957 35231 ft 484 kts 225°
2026-04-30 20:08 61.65940 -90.66481 35232 ft 483 kts 225°
2026-04-30 20:09 61.60961 -90.76029 35224 ft 483 kts 225°
2026-04-30 20:09 61.53498 -90.90261 35240 ft 484 kts 225°
2026-04-30 20:10 61.46125 -91.04227 35240 ft 486 kts 225°
2026-04-30 20:11 61.38592 -91.18399 35242 ft 486 kts 225°
2026-04-30 20:11 61.33574 -91.27786 35242 ft 486 kts 225°
2026-04-30 20:12 61.26000 -91.41874 35230 ft 485 kts 225°
2026-04-30 20:13 61.20978 -91.51163 35247 ft 485 kts 225°
2026-04-30 20:13 61.15916 -91.60487 35252 ft 486 kts 224°
2026-04-30 20:14 61.10869 -91.69741 35256 ft 487 kts 224°
2026-04-30 20:14 61.05786 -91.79019 35256 ft 487 kts 224°
2026-04-30 20:15 61.00681 -91.88295 35244 ft 487 kts 224°
2026-04-30 20:15 60.95678 -91.97345 35255 ft 487 kts 224°
2026-04-30 20:16 60.91576 -92.04736 35259 ft 486 kts 224°
2026-04-30 20:16 60.86471 -92.13899 35256 ft 486 kts 224°
2026-04-30 20:17 60.81386 -92.22986 35256 ft 487 kts 224°
2026-04-30 20:17 60.76262 -92.32103 35256 ft 488 kts 224°
2026-04-30 20:18 60.71108 -92.41232 35243 ft 488 kts 224°
2026-04-30 20:18 60.65988 -92.50260 35259 ft 488 kts 224°
2026-04-30 20:19 60.60849 -92.59283 35263 ft 488 kts 223°
2026-04-30 20:19 60.55703 -92.68279 35260 ft 487 kts 223°
2026-04-30 20:20 60.50576 -92.77203 35256 ft 488 kts 223°
2026-04-30 20:20 60.45393 -92.86185 35262 ft 489 kts 223°
2026-04-30 20:21 60.40211 -92.95127 35256 ft 489 kts 223°
2026-04-30 20:21 60.35163 -93.03801 35260 ft 489 kts 223°
2026-04-30 20:22 60.29994 -93.12644 35266 ft 489 kts 223°
2026-04-30 20:22 60.24784 -93.21519 35260 ft 489 kts 223°
2026-04-30 20:23 60.19564 -93.30372 35276 ft 489 kts 223°
2026-04-30 20:23 60.14382 -93.39124 35263 ft 489 kts 223°
2026-04-30 20:24 60.09148 -93.47927 35266 ft 490 kts 223°
2026-04-30 20:24 60.03945 -93.56639 35268 ft 490 kts 223°
2026-04-30 20:25 59.96078 -93.69742 35264 ft 491 kts 222°
2026-04-30 20:26 59.88198 -93.82782 35265 ft 491 kts 222°
2026-04-30 20:26 59.80330 -93.95721 35249 ft 490 kts 222°
2026-04-30 20:27 59.69929 -94.12702 35270 ft 491 kts 222°
2026-04-30 20:28 59.59371 -94.29793 35267 ft 492 kts 222°
2026-04-30 20:30 59.46073 -94.51117 35267 ft 492 kts 221°
2026-04-30 20:31 59.30127 -94.76397 35242 ft 494 kts 221°
2026-04-30 20:32 59.16714 -94.97418 35233 ft 494 kts 221°
2026-04-30 20:33 59.08852 -95.09640 35230 ft 493 kts 221°
2026-04-30 20:34 59.00794 -95.22089 35225 ft 494 kts 221°
2026-04-30 20:35 58.92728 -95.34476 35227 ft 495 kts 221°
2026-04-30 20:35 58.84652 -95.46800 35210 ft 496 kts 220°
2026-04-30 20:36 58.79227 -95.55037 35211 ft 496 kts 220°
2026-04-30 20:37 58.71091 -95.67326 35211 ft 496 kts 220°
2026-04-30 20:37 58.65652 -95.75501 35208 ft 495 kts 220°
2026-04-30 20:38 58.60223 -95.83628 35209 ft 495 kts 220°
2026-04-30 20:38 58.54778 -95.91745 35221 ft 495 kts 220°
2026-04-30 20:39 58.46761 -96.03636 35213 ft 495 kts 220°
2026-04-30 20:40 58.38611 -96.15655 35215 ft 495 kts 220°
2026-04-30 20:40 58.33154 -96.23662 35198 ft 496 kts 220°
2026-04-30 20:41 58.24938 -96.35655 35203 ft 497 kts 220°
2026-04-30 20:41 58.19442 -96.43638 35193 ft 498 kts 220°
2026-04-30 20:42 58.16679 -96.47641 35326 ft 500 kts 219°
2026-04-30 20:42 58.13911 -96.51641 35601 ft 499 kts 219°
2026-04-30 20:42 58.08400 -96.59580 36191 ft 496 kts 219°
2026-04-30 20:43 58.05653 -96.63526 36422 ft 496 kts 219°
2026-04-30 20:43 58.02902 -96.67470 36628 ft 497 kts 219°
2026-04-30 20:43 58.00149 -96.71410 36851 ft 497 kts 219°
2026-04-30 20:44 57.94645 -96.79265 37104 ft 499 kts 219°
2026-04-30 20:44 57.91873 -96.83209 37158 ft 501 kts 219°
2026-04-30 20:45 57.80774 -96.98917 37170 ft 499 kts 219°
2026-04-30 20:45 57.75310 -97.06605 37169 ft 498 kts 219°
2026-04-30 20:46 57.64225 -97.22113 37174 ft 497 kts 219°
2026-04-30 20:47 57.55904 -97.33675 37169 ft 498 kts 219°
2026-04-30 20:48 57.47563 -97.45198 37178 ft 501 kts 218°
2026-04-30 20:48 57.41955 -97.52907 37171 ft 502 kts 218°
2026-04-30 20:49 57.36326 -97.60614 37183 ft 503 kts 218°
2026-04-30 20:50 57.27882 -97.72118 37176 ft 503 kts 218°
2026-04-30 20:50 57.22235 -97.79776 37164 ft 503 kts 218°
2026-04-30 20:51 57.16583 -97.87409 37186 ft 503 kts 218°
2026-04-30 20:51 57.08086 -97.98832 37185 ft 504 kts 218°
2026-04-30 20:52 57.02572 -98.06208 37186 ft 504 kts 218°
2026-04-30 20:53 56.94086 -98.17507 37187 ft 504 kts 218°
2026-04-30 20:53 56.88409 -98.25030 37169 ft 504 kts 218°
2026-04-30 20:54 56.79870 -98.36291 37185 ft 504 kts 218°
2026-04-30 20:55 56.71310 -98.47515 37181 ft 506 kts 218°
2026-04-30 20:55 56.65586 -98.54984 37197 ft 507 kts 218°
2026-04-30 20:56 56.56982 -98.66157 37195 ft 507 kts 218°
2026-04-30 20:57 56.48390 -98.77253 37191 ft 507 kts 218°
2026-04-30 20:57 56.42633 -98.84652 37198 ft 507 kts 217°
2026-04-30 20:58 56.33979 -98.95722 37196 ft 508 kts 217°
2026-04-30 20:58 56.28360 -99.02876 37201 ft 508 kts 217°
2026-04-30 20:59 56.19687 -99.13866 37203 ft 508 kts 217°
2026-04-30 21:00 56.08178 -99.28356 37205 ft 508 kts 217°
2026-04-30 21:01 55.99444 -99.39282 37198 ft 510 kts 217°
2026-04-30 21:02 55.90699 -99.50159 37200 ft 511 kts 217°
2026-04-30 21:02 55.84862 -99.57384 37191 ft 511 kts 217°
2026-04-30 21:03 55.79024 -99.64586 37187 ft 510 kts 217°
2026-04-30 21:03 55.73188 -99.71756 37188 ft 511 kts 217°
2026-04-30 21:04 55.68321 -99.77718 37184 ft 511 kts 217°
2026-04-30 21:04 55.59516 -99.88456 37181 ft 512 kts 217°
2026-04-30 21:05 55.53642 -99.95590 37182 ft 512 kts 217°
2026-04-30 21:05 55.47938 -100.02457 37180 ft 513 kts 216°
2026-04-30 21:06 55.41965 -100.09366 37167 ft 513 kts 216°
2026-04-30 21:06 55.35959 -100.16212 37172 ft 514 kts 216°
2026-04-30 21:07 55.29944 -100.23072 37168 ft 515 kts 216°
2026-04-30 21:07 55.23936 -100.29928 37170 ft 516 kts 216°
2026-04-30 21:08 55.17903 -100.36797 37166 ft 516 kts 216°
2026-04-30 21:08 55.11910 -100.43595 37163 ft 516 kts 216°
2026-04-30 21:09 55.05883 -100.50403 37167 ft 516 kts 215°
2026-04-30 21:09 54.99884 -100.57155 37161 ft 516 kts 215°
2026-04-30 21:10 54.93858 -100.63913 37161 ft 515 kts 215°
2026-04-30 21:10 54.87838 -100.70639 37163 ft 514 kts 215°
2026-04-30 21:11 54.81817 -100.77343 37161 ft 514 kts 215°
2026-04-30 21:11 54.75807 -100.84011 37167 ft 513 kts 215°
2026-04-30 21:12 54.69782 -100.90671 37169 ft 513 kts 215°
2026-04-30 21:12 54.63750 -100.97316 37160 ft 515 kts 215°
2026-04-30 21:13 54.57821 -101.03824 37166 ft 517 kts 215°
2026-04-30 21:13 54.51742 -101.10474 37169 ft 518 kts 215°
2026-04-30 21:14 54.45681 -101.17079 37172 ft 519 kts 215°
2026-04-30 21:14 54.39584 -101.23698 37167 ft 519 kts 214°
2026-04-30 21:15 54.33484 -101.30298 37154 ft 518 kts 215°
2026-04-30 21:15 54.27379 -101.36881 37178 ft 518 kts 215°
2026-04-30 21:16 54.21269 -101.43446 37182 ft 519 kts 215°
2026-04-30 21:16 54.15153 -101.49995 37183 ft 519 kts 214°
2026-04-30 21:17 54.09030 -101.56527 37186 ft 519 kts 214°
2026-04-30 21:17 54.02910 -101.63033 37188 ft 518 kts 214°
2026-04-30 21:18 53.96803 -101.69501 37181 ft 518 kts 215°
2026-04-30 21:18 53.90715 -101.75929 37196 ft 519 kts 214°
2026-04-30 21:19 53.84566 -101.82399 37189 ft 520 kts 214°
2026-04-30 21:19 53.78403 -101.88859 37182 ft 520 kts 214°
2026-04-30 21:20 53.72242 -101.95295 37181 ft 521 kts 214°
2026-04-30 21:20 53.66223 -102.01561 37175 ft 521 kts 214°
2026-04-30 21:21 53.60046 -102.07969 37171 ft 521 kts 214°
2026-04-30 21:22 53.50763 -102.17559 37158 ft 522 kts 214°
2026-04-30 21:23 53.38371 -102.30281 37162 ft 522 kts 214°
2026-04-30 21:23 53.29100 -102.39744 37128 ft 522 kts 214°
2026-04-30 21:24 53.22894 -102.46048 37158 ft 523 kts 214°
2026-04-30 21:24 53.16663 -102.52360 37161 ft 523 kts 214°
2026-04-30 21:25 53.07365 -102.61736 37170 ft 524 kts 214°
2026-04-30 21:26 52.98000 -102.71131 37173 ft 525 kts 214°
2026-04-30 21:27 52.88657 -102.80453 37176 ft 525 kts 214°
2026-04-30 21:27 52.82370 -102.86704 37186 ft 526 kts 214°
2026-04-30 21:28 52.72951 -102.96027 37191 ft 527 kts 214°
2026-04-30 21:29 52.63623 -103.05210 37190 ft 527 kts 214°
2026-04-30 21:30 52.47893 -103.20593 37202 ft 528 kts 214°
2026-04-30 21:31 52.32077 -103.35932 37206 ft 529 kts 214°
2026-04-30 21:32 52.22598 -103.45061 37187 ft 529 kts 214°
2026-04-30 21:32 52.16252 -103.51147 37219 ft 529 kts 214°
2026-04-30 21:33 52.06747 -103.60232 37226 ft 529 kts 214°
2026-04-30 21:34 52.00402 -103.66268 37230 ft 530 kts 214°
2026-04-30 21:34 51.90884 -103.75285 37237 ft 531 kts 213°
2026-04-30 21:35 51.84494 -103.81309 37229 ft 531 kts 214°
2026-04-30 21:35 51.78137 -103.87289 37230 ft 531 kts 214°
2026-04-30 21:36 51.71715 -103.93309 37231 ft 532 kts 214°
2026-04-30 21:37 51.59054 -104.05118 37226 ft 532 kts 213°
2026-04-30 21:37 51.52642 -104.11068 37230 ft 532 kts 213°
2026-04-30 21:38 51.46213 -104.17014 37223 ft 532 kts 213°
2026-04-30 21:38 51.39789 -104.22938 37237 ft 532 kts 213°
2026-04-30 21:39 51.33361 -104.28845 37232 ft 532 kts 213°
2026-04-30 21:39 51.26932 -104.34734 37219 ft 532 kts 213°
2026-04-30 21:40 51.20513 -104.40594 37185 ft 532 kts 213°
2026-04-30 21:40 51.14127 -104.46405 37223 ft 531 kts 212°
2026-04-30 21:41 51.07706 -104.52232 37222 ft 532 kts 212°
2026-04-30 21:41 51.01270 -104.58051 37219 ft 532 kts 212°
2026-04-30 21:42 50.94846 -104.63841 37224 ft 532 kts 212°
2026-04-30 21:42 50.88400 -104.69634 37224 ft 533 kts 212°
2026-04-30 21:43 50.83033 -104.74442 37210 ft 532 kts 212°
2026-04-30 21:43 50.75495 -104.81175 37222 ft 533 kts 212°
2026-04-30 21:44 50.69077 -104.86888 37233 ft 533 kts 212°
2026-04-30 21:44 50.62431 -104.92108 37223 ft 535 kts 206°
2026-04-30 21:45 50.55591 -104.96747 37199 ft 535 kts 205°
2026-04-30 21:45 50.48903 -105.01258 37201 ft 534 kts 205°
2026-04-30 21:46 50.42090 -105.05898 37225 ft 533 kts 205°
2026-04-30 21:46 50.35292 -105.10543 37223 ft 533 kts 205°
2026-04-30 21:47 50.28541 -105.15144 37230 ft 532 kts 205°
2026-04-30 21:47 50.21745 -105.19756 37224 ft 532 kts 205°
2026-04-30 21:48 50.14957 -105.24347 37229 ft 532 kts 205°
2026-04-30 21:48 50.08166 -105.28925 37219 ft 531 kts 205°
2026-04-30 21:49 50.01365 -105.33496 37246 ft 531 kts 205°
2026-04-30 21:49 49.94649 -105.37995 37248 ft 531 kts 205°
2026-04-30 21:50 49.87867 -105.42527 37248 ft 531 kts 205°
2026-04-30 21:50 49.81067 -105.47055 37249 ft 531 kts 205°
2026-04-30 21:51 49.75409 -105.50812 37246 ft 531 kts 205°
2026-04-30 21:51 49.68622 -105.55305 37235 ft 530 kts 205°
2026-04-30 21:52 49.61831 -105.59790 37241 ft 530 kts 205°
2026-04-30 21:52 49.55047 -105.64255 37239 ft 530 kts 204°
2026-04-30 21:53 49.48264 -105.68706 37228 ft 530 kts 204°
2026-04-30 21:53 49.41521 -105.73118 37228 ft 530 kts 204°
2026-04-30 21:54 49.34768 -105.77522 37185 ft 529 kts 204°
2026-04-30 21:54 49.27962 -105.81949 37214 ft 528 kts 204°
2026-04-30 21:55 49.21185 -105.86344 37216 ft 528 kts 204°
2026-04-30 21:55 49.14418 -105.90719 37227 ft 527 kts 204°
2026-04-30 21:56 49.07695 -105.95053 37242 ft 527 kts 204°
2026-04-30 21:56 49.00937 -105.99418 37228 ft 527 kts 205°
2026-04-30 21:57 48.94653 -106.04531 37232 ft 524 kts 212°
2026-04-30 21:57 48.88356 -106.10162 37214 ft 524 kts 212°
2026-04-30 21:58 48.82052 -106.15763 37221 ft 525 kts 212°
2026-04-30 21:58 48.75734 -106.21306 37207 ft 525 kts 212°
2026-04-30 21:59 48.69416 -106.26808 37202 ft 524 kts 211°
2026-04-30 22:00 48.59968 -106.35007 37196 ft 523 kts 211°
2026-04-30 22:00 48.50485 -106.43207 37202 ft 523 kts 211°
2026-04-30 22:01 48.44161 -106.48657 37178 ft 523 kts 211°
2026-04-30 22:01 48.37841 -106.54087 37159 ft 523 kts 211°
2026-04-30 22:02 48.31521 -106.59501 37153 ft 522 kts 211°
2026-04-30 22:02 48.25209 -106.64893 37146 ft 522 kts 211°
2026-04-30 22:03 48.18894 -106.70271 37147 ft 522 kts 211°
2026-04-30 22:03 48.12621 -106.75599 37160 ft 522 kts 211°
2026-04-30 22:04 48.06307 -106.80947 37174 ft 522 kts 211°
2026-04-30 22:05 47.96839 -106.88937 37203 ft 522 kts 211°
2026-04-30 22:05 47.90512 -106.94258 37205 ft 522 kts 211°
2026-04-30 22:06 47.84173 -106.99574 37207 ft 522 kts 211°
2026-04-30 22:06 47.74793 -107.07411 37187 ft 522 kts 211°
2026-04-30 22:07 47.68459 -107.12686 37195 ft 522 kts 211°
2026-04-30 22:07 47.62122 -107.17947 37199 ft 521 kts 211°
2026-04-30 22:08 47.55840 -107.23149 37202 ft 521 kts 211°
2026-04-30 22:08 47.49504 -107.28381 37198 ft 521 kts 211°
2026-04-30 22:09 47.43170 -107.33598 37178 ft 520 kts 210°
2026-04-30 22:09 47.36838 -107.38797 37196 ft 520 kts 210°
2026-04-30 22:10 47.30510 -107.43978 37216 ft 520 kts 210°
2026-04-30 22:10 47.24178 -107.49150 37210 ft 520 kts 210°
2026-04-30 22:11 47.14707 -107.56858 37186 ft 520 kts 210°
2026-04-30 22:12 47.08368 -107.61999 37202 ft 520 kts 210°
2026-04-30 22:12 47.02036 -107.67121 37211 ft 520 kts 210°
2026-04-30 22:13 46.95708 -107.72225 37200 ft 519 kts 210°
2026-04-30 22:13 46.89382 -107.77313 37200 ft 519 kts 210°
2026-04-30 22:14 46.83097 -107.82357 37187 ft 518 kts 210°
2026-04-30 22:14 46.76786 -107.87405 37206 ft 517 kts 210°
2026-04-30 22:15 46.70470 -107.92445 37204 ft 516 kts 210°
2026-04-30 22:15 46.64168 -107.97461 37202 ft 516 kts 210°
2026-04-30 22:16 46.57991 -108.02363 37203 ft 516 kts 210°
2026-04-30 22:17 46.45406 -108.12312 37201 ft 514 kts 210°
2026-04-30 22:17 46.35987 -108.19724 37206 ft 513 kts 210°
2026-04-30 22:18 46.26578 -108.27099 37198 ft 513 kts 210°
2026-04-30 22:19 46.17213 -108.34410 37194 ft 511 kts 210°
2026-04-30 22:20 46.07815 -108.41720 37211 ft 511 kts 210°
2026-04-30 22:20 45.98465 -108.48963 37201 ft 510 kts 210°
2026-04-30 22:21 45.92237 -108.53773 37193 ft 510 kts 210°
2026-04-30 22:21 45.85989 -108.58587 37206 ft 510 kts 210°
2026-04-30 22:22 45.79731 -108.63399 37204 ft 510 kts 210°
2026-04-30 22:22 45.73500 -108.68277 37207 ft 510 kts 210°
2026-04-30 22:23 45.67292 -108.73171 37185 ft 510 kts 210°
2026-04-30 22:23 45.61076 -108.78051 37209 ft 509 kts 210°
2026-04-30 22:24 45.54871 -108.82899 37211 ft 508 kts 210°
2026-04-30 22:24 45.48663 -108.87732 37202 ft 507 kts 210°
2026-04-30 22:25 45.42464 -108.92546 37205 ft 507 kts 210°
2026-04-30 22:25 45.36276 -108.97340 37217 ft 505 kts 210°
2026-04-30 22:26 45.27213 -109.04341 37207 ft 503 kts 210°
2026-04-30 22:27 45.21064 -109.09076 37209 ft 501 kts 210°
2026-04-30 22:27 45.11863 -109.16141 37223 ft 500 kts 210°
2026-04-30 22:28 45.02666 -109.23176 37227 ft 500 kts 210°
2026-04-30 22:29 44.90450 -109.32480 37236 ft 502 kts 210°
2026-04-30 22:31 44.68902 -109.48783 37248 ft 502 kts 210°
2026-04-30 22:32 44.53549 -109.60312 37243 ft 500 kts 210°
2026-04-30 22:33 44.38227 -109.71750 37256 ft 498 kts 210°
2026-04-30 22:35 44.22908 -109.83120 37257 ft 498 kts 210°
2026-04-30 22:36 44.07672 -109.94361 37225 ft 496 kts 210°
2026-04-30 22:37 43.95578 -110.03130 37204 ft 495 kts 209°
2026-04-30 22:38 43.83201 -110.11528 37212 ft 494 kts 208°
2026-04-30 22:39 43.74973 -110.17124 37190 ft 494 kts 209°
2026-04-30 22:40 43.56471 -110.29696 37198 ft 494 kts 209°
2026-04-30 22:41 43.41039 -110.40112 37187 ft 494 kts 209°
2026-04-30 22:43 43.22521 -110.52531 37173 ft 494 kts 209°
2026-04-30 22:44 43.10180 -110.60760 37155 ft 493 kts 209°
2026-04-30 22:45 42.91715 -110.73008 37158 ft 491 kts 209°
2026-04-30 22:47 42.73396 -110.85075 37172 ft 489 kts 209°
2026-04-30 22:48 42.61121 -110.93118 37160 ft 490 kts 209°
2026-04-30 22:49 42.42783 -111.05067 37132 ft 491 kts 209°
2026-04-30 22:51 42.24358 -111.16993 37130 ft 490 kts 209°
2026-04-30 22:52 42.15117 -111.22946 37137 ft 491 kts 209°
2026-04-30 22:53 42.02773 -111.30868 37136 ft 492 kts 209°
2026-04-30 22:53 41.93496 -111.36798 37134 ft 492 kts 210°
2026-04-30 22:55 41.78067 -111.46619 37126 ft 492 kts 209°
2026-04-30 22:56 41.65673 -111.54470 37120 ft 491 kts 210°
2026-04-30 22:57 41.50250 -111.64193 37100 ft 491 kts 210°
2026-04-30 22:58 41.37865 -111.71966 37091 ft 492 kts 210°
2026-04-30 22:59 41.19282 -111.83563 37108 ft 491 kts 211°